Location: Cz?stochówka
(50.8142°N, 19.0915°E)
Time: 14:03:30
(UTC+00:00)

Cosmos 2366 rocket - Pass Details

Date: 12 April 2026
Orbit: 954 x 996 km, 82.9° (Epoch: 16 May)

Event Time Altitude Azimuth Distance (km) Brightness Sun altitude
Exits shadow 18:19:12 - 152° (SSE) 3,581 6.5 -7.5°
Reaches altitude 10° 18:21:49 10° 143° (SE) 2,696 5.8 -7.9°
Maximum altitude 18:27:01 30° 85° (E) 1,661 4.8 -8.7°
Drops below altitude 10° 18:32:13 10° 27° (NNE) 2,697 6.3 -9.4°
Sets 18:35:00 0° 17° (NNE) 3,646 7.1 -9.8°
